Regional Weather Roundup
Issued by NWS

Home | Current Version | Previous Version | Text Only | Print | Product List | Glossary Off
Versions: 1 2 3 4 5 6 7 8 9 10 11 12 13 14 15 16 17 18 19 20 21 22 23 24 25 26 27 28 29 30 31 32 33 34 35 36 37 38 39 40 41 42 43 44 45 46 47 48 49 50

346
ASUS43 KLSX 290907
RWRMO

WEATHER SUMMARY FOR MISSOURI
NATIONAL WEATHER SERVICE SPRINGFIELD MO
400 AM CDT SUN MAY 29 2016

NOTE: "FAIR" INDICATES FEW OR NO CLOUDS BELOW 12,000 FEET WITH NO
       SIGNIFICANT WEATHER AND/OR OBSTRUCTIONS TO VISIBILITY.
       CURRENT SKY AND/OR WEATHER CONDITIONS ARE NOT AVAILABLE FOR
       CHILLICOTHE AND FARMINGTON.

MOZ001>031-035>038-043-044-053-054-291000-
...NORTHERN AND WESTERN MISSOURI...

CITY           SKY/WX    TMP DP  RH WIND       PRES   REMARKS
KANSAS CTY INT CLEAR     60  57  89 S7        30.03R
KANSAS C DTWN  CLEAR     64  59  83 SW5       30.03R
LEE`S SUMMIT   CLEAR     63  59  87 SW6       30.04R
ST JOSEPH      CLEAR     58  57  97 CALM      30.01S
CHILLICOTHE      N/A     63  60  90 CALM      30.02R
KIRKSVILLE     CLEAR     61  58  90 SW5       30.01R

$$
MOZ066>068-077>081-088>096-101>105-291000-
...SOUTHWEST MISSOURI...

CITY           SKY/WX    TMP DP  RH WIND       PRES   REMARKS
SPRINGFIELD    CLEAR     63  60  90 S5        30.06F
JOPLIN         CLEAR     64  62  93 S5        30.07S

$$
MOZ032>034-039>042-045>050-055>058-069>072-291000-
...CENTRAL MISSOURI...

CITY           SKY/WX    TMP DP  RH WIND       PRES   REMARKS
COLUMBIA       CLEAR     65  62  90 W7        30.03S
JEFFERSON CITY CLEAR     64  62  93 CALM      30.03R
ROLLA          CLEAR     63  61  93 SW6       30.04R
SEDALIA        CLEAR     65  62  90 SW7       30.05R
WHITEMAN AFB   CLEAR     62  62  99 SW5       30.04R
WARRENSBURG    CLEAR     61  59  94 S6        30.04R

$$
MOZ051-052-059>065-291000-
...EAST CENTRAL MISSOURI...

CITY           SKY/WX    TMP DP  RH WIND       PRES   REMARKS
ST LOUIS INTL  PTCLDY    68  59  73 CALM      30.03S
SPIRIT OF STL  PTCLDY    64  62  93 CALM      30.02S
ST CHARLES     PTCLDY    65  62  90 S3        30.01S

$$
MOZ072>076-082>087-097>100-106>115-291000-
...SOUTH CENTRAL AND SOUTHEAST MISSOURI...

CITY           SKY/WX    TMP DP  RH WIND       PRES   REMARKS
CAPE GIRARDEAU CLEAR     67  66  97 CALM      30.04R FOG
FARMINGTON     PTCLDY    65  64  97 CALM      30.06R
POPLAR BLUFF   PTCLDY    66  65  96 CALM      30.04R
WEST PLAINS    CLEAR     66  63  90 W5        30.08R

$$



USA.gov is the U.S. government's official web portal to all federal, state and local government web resources and services.